Home > Weather > Des Moines > Past weeks

Flag for USA Past Weather in Des Moines, Iowa, USA — Yesterday and Last 2 Weeks

Now
75 °F

Scattered clouds.


Feels Like: 77 °F
Forecast: 60 / 83 °F
Wind: 15 mph from Southwest

Location: Des Moines International Airport

Current Time: May 28, 2016 at 7:06:56 PM

Latest Report: May 28, 2016 at 5:54 PM


Visibility: 10 mi

Pressure: 29.78 "Hg

Humidity: 58%

Dew Point: 59 °F

Location of Des MoinesLocation

Past Weather in Des Moines — Graph

°F

Des Moines Temperature Yesterday

Maximum temperature yesterday: 76 °F (at 4:54 PM)
Minimum temperature yesterday: 63 °F (at 5:54 AM)
Average temperature yesterday: 68 °F

High & Low Weather Summary for the Past Weeks

 TemperatureHumidityPressure
High84 °F (May 24, 5:54 PM)96% (May 17, 6:54 AM)30.28 "Hg (May 17, 6:54 AM)
Low40 °F (May 14, 5:54 AM)22% (May 22, 3:54 PM)29.68 "Hg (May 27, 8:54 PM)
Average63 °F62%30.02 "Hg
* Reported May 13 5:54 PM — May 28 5:54 PM, Des Moines, Weather by CustomWeather, © 2016

Note: Actual official high and low records may vary slightly from our data, if they occured in-between our weather recording intervals... More about our weather records

Advertising

Des Moines Weather History for the Previous 24 Hours

Scroll right to see more
 ConditionsComfort  
Time TempWeatherWind HumidityBarometerVisibility
5:54 PM
Sat, May 28
75 °FScattered clouds.15 mph58%29.78 "Hg10 mi
4:54 PM73 °FScattered clouds.16 mph66%29.78 "Hg10 mi
3:54 PM73 °FScattered clouds.13 mph76%29.77 "Hg10 mi
2:59 PM70 °FPartly sunny.10 mph76%29.79 "Hg10 mi
1:54 PM67 °FLight rain. Fog.10 mph87%29.78 "Hg4 mi
12:54 PM66 °FHeavy rain. Mostly cloudy.12 mph84%29.78 "Hg3 mi
11:54 AM71 °FBroken clouds.13 mph66%29.77 "Hg10 mi
10:54 AM70 °FPartly sunny.9 mph73%29.75 "Hg10 mi
9:54 AM70 °FBroken clouds.7 mph79%29.75 "Hg10 mi
8:59 AM67 °FPartly sunny.7 mph87%29.77 "Hg10 mi
7:54 AM65 °FLow clouds.8 mph85%29.74 "Hg10 mi
6:54 AM62 °FBroken clouds.6 mph90%29.73 "Hg10 mi
5:54 AM63 °FPartly cloudy.3 mph87%29.72 "Hg10 mi
4:54 AM63 °FOvercast.3 mph90%29.72 "Hg10 mi
3:54 AM64 °FLight rain. Mostly cloudy.8 mph87%29.72 "Hg9 mi
2:54 AM64 °FOvercast.6 mph87%29.70 "Hg10 mi
1:54 AM65 °FLight rain. Overcast.5 mph87%29.71 "Hg10 mi
12:54 AM66 °FLight rain. Overcast.3 mph87%29.73 "Hg10 mi
11:54 PM
Fri, May 27
68 °FLight rain. Overcast.3 mph87%29.75 "Hg10 mi
10:54 PM69 °FLight rain. Overcast.3 mph84%29.74 "Hg10 mi
9:54 PM71 °FLight rain. Overcast.8 mph78%29.75 "Hg10 mi
8:54 PM73 °FLight rain. Mostly cloudy.5 mph66%29.68 "Hg10 mi
7:54 PM74 °FBroken clouds.7 mph64%29.69 "Hg10 mi
Weather by CustomWeather, © 2016

See weather overviewHow to use our weather pages